Regional Weather Roundup
Issued by NWS

Home | Current Version | Previous Version | Text Only | Print | Product List | Glossary Off
Versions: 1 2 3 4 5 6 7 8 9 10 11 12 13 14 15 16 17 18 19 20 21 22 23 24 25 26 27 28 29 30 31 32 33 34 35 36 37 38 39 40 41 42 43 44 45 46 47 48 49 50

372
ASUS45 KCYS 222210
RWRWY

WYOMING REGIONAL WEATHER ROUNDUP
NATIONAL WEATHER SERVICE CHEYENNE WY
400 PM MDT MON MAY 22 2017

NOTE:  "FAIR" INDICATES FEW OR NO CLOUDS BELOW 12,000 FEET
WITH NO SIGNIFICANT WEATHER AND/OR OBSTRUCTIONS TO VISIBILITY.

WYZ001-222300-
YELLOWSTONE NATIONAL PARK

CITY           SKY/WX    TMP DP  RH WIND       PRES   REMARKS
LK YELLOWSTONE   N/A     49  31  49 N9G24     30.36R
W YELLOWSTONE  NOT AVBL

$$
WYZ002>013-054>058-071-098>099-222300-
NORTHERN WYOMING

CITY           SKY/WX    TMP DP  RH WIND       PRES   REMARKS
JACKSON        PTSUNNY   57  32  38 N14G21    30.25R
CODY           FAIR      52  38  58 NE25G33   30.27R
GREYBULL       FAIR      59  43  55 NW28G33   30.18F
WORLAND        PTSUNNY   57  44  62 NW13      30.20F
SHERIDAN       PTSUNNY   59  40  49 N5        30.19R THUNDER
BUFFALO        FAIR      57  36  45 NW25G32   30.19S
GILLETTE       FAIR      51  43  74 N12       30.15F
HULETT         LGT RAIN  46  41  81 N9        30.16S
NEWCASTLE      FAIR      46  36  66 N14G23    30.13R

$$
WYZ014>020-022>026-101>103-222300-
CENTRAL WYOMING

CITY           SKY/WX    TMP DP  RH WIND       PRES   REMARKS
BIG PINEY      PTSUNNY   64  25  22 N18G33    30.22S
PINEDALE       FAIR      61  27  27 NW20G29   30.22S
DUBOIS         CLOUDY    55  30  38 NW21G26   30.24S
LANDER         LGT RAIN  42  38  85 SW13      30.31F
RIVERTON       LGT RAIN  48  39  71 W9        30.29R
CASPER         CLOUDY    45  38  76 N9        30.22F
DOUGLAS        PTSUNNY   49  41  74 W14       30.18F

$$
WYZ021-027>030-104>119-222300-
SOUTHERN WYOMING

CITY           SKY/WX    TMP DP  RH WIND       PRES   REMARKS
EVANSTON       PTSUNNY   62  32  32 NW17G26   30.27F
KEMMERER         N/A     61  30  31 NW20G31   30.26S
FORT BRIDGER   MOCLDY    64  30  27 NW21G32   30.28S
ROCK SPRINGS   CLOUDY    47  36  65 NE28G46   30.22R
DIXON            N/A     60  33  35 W10G23    30.20F THUNDER
RAWLINS        LGT RAIN  41  34  76 N25G31    30.28R
SARATOGA       TSTM      41  39  93 N17G35    30.24R
LARAMIE        LGT RAIN  36  34  92 N18G30    30.22R FOG     WCI  26
CHEYENNE       RAIN      40  37  89 N13G22    30.19R FOG     WCI  32
TORRINGTON     FAIR      50  38  63 NW12      30.11F
PINE BLUFFS    CLOUDY    45  43  93 NW15      30.16R

$$




USA.gov is the U.S. government's official web portal to all federal, state and local government web resources and services.